Torna al catalogo

FLOCK 4BE 1

AttivoScienzaSSO
NORAD 60518·PAYLOAD·🇺🇸 United States

Lanciato Aug 16, 2024 da Vandenberg Space Force Base

Loading…

Prossimi Passaggi (prossime 24 ore)

TLE

AggiornatoSource: CelesTrak SupGP

Epoca: Sep 14, 2026, 18:45 UTC

1 60518C 24149AL  26257.78145833  .00038479  00000+0  79475-3 0  2573
2 60518  97.3724 344.0911 0002981 338.8886 215.8832 15.45838123    10

Traccia FLOCK 4BE 1 in tempo reale con AllMySat

Download on the App Store